AIC1H VIDN-VILH

Flight info

Callsign AIC1H
Flight time 0h 44m
Altitude 31000
Route PEGMA DCT LELAX/N0431F300
Aircraft A319/M-SDE3FGHIRWY/LB1

Departure

Time 2026-05-01 13:51
Airport Dehradun Jolly Grant Airport (VIDN)

Arrival

Time 2026-05-01 14:35
Airport Leh Kushok Bakula Rimpochee Airport (VILH)
Time Latitude Longitude Altitude Speed Heading
2026-05-01 13:28 30.19378 78.19188 1859 ft 0 kts 77°
2026-05-01 13:28 30.19378 78.19187 1859 ft 0 kts 77°
2026-05-01 13:33 30.19377 78.19187 1859 ft 1 kts 77°
2026-05-01 13:45 30.19375 78.19180 1859 ft 5 kts 99°
2026-05-01 13:45 30.19384 78.19173 1859 ft 4 kts 169°
2026-05-01 13:45 30.19399 78.19170 1858 ft 4 kts 169°
2026-05-01 13:47 30.19397 78.19170 1858 ft 1 kts 169°
2026-05-01 13:48 30.19390 78.19171 1859 ft 2 kts 169°
2026-05-01 13:48 30.19368 78.19176 1858 ft 5 kts 169°
2026-05-01 13:48 30.19336 78.19192 1859 ft 5 kts 129°
2026-05-01 13:48 30.19336 78.19228 1860 ft 5 kts 88°
2026-05-01 13:49 30.19306 78.19256 1861 ft 9 kts 163°
2026-05-01 13:49 30.19228 78.19275 1860 ft 13 kts 167°
2026-05-01 13:49 30.19176 78.19249 1858 ft 0 kts 265°
2026-05-01 13:50 30.19171 78.19201 1856 ft 27 kts 261°
2026-05-01 13:50 30.19092 78.18705 1840 ft 97 kts 260°
2026-05-01 13:50 30.18937 78.17712 1816 ft 150 kts 259°
2026-05-01 13:50 30.18725 78.16444 2101 ft 166 kts 258°
2026-05-01 13:51 30.18555 78.15559 2405 ft 172 kts 257°
2026-05-01 13:51 30.18242 78.13754 3202 ft 174 kts 260°
2026-05-01 13:51 30.18095 78.12280 3520 ft 194 kts 274°
2026-05-01 13:51 30.18678 78.10789 3662 ft 224 kts 316°
2026-05-01 13:52 30.19558 78.10097 3877 ft 240 kts 334°
2026-05-01 13:52 30.21150 78.09237 4320 ft 264 kts 334°
2026-05-01 13:52 30.22844 78.08285 4993 ft 277 kts 332°
2026-05-01 13:52 30.24586 78.07280 5691 ft 280 kts 332°
2026-05-01 13:53 30.26320 78.06272 6632 ft 278 kts 332°
2026-05-01 13:53 30.29751 78.04278 8625 ft 273 kts 331°
2026-05-01 13:53 30.31433 78.03297 9572 ft 274 kts 330°
2026-05-01 13:54 30.33172 78.02277 10103 ft 290 kts 330°
2026-05-01 13:54 30.35038 78.01176 10442 ft 309 kts 330°
2026-05-01 13:54 30.36982 78.00034 11122 ft 315 kts 331°
2026-05-01 13:54 30.38948 77.98882 11922 ft 317 kts 331°
2026-05-01 13:55 30.40903 77.97738 12754 ft 319 kts 331°
2026-05-01 13:55 30.42908 77.96564 13418 ft 326 kts 332°
2026-05-01 13:55 30.44950 77.95371 14039 ft 331 kts 332°
2026-05-01 13:55 30.47009 77.94170 14664 ft 332 kts 331°
2026-05-01 13:56 30.49084 77.92958 15291 ft 333 kts 331°
2026-05-01 13:56 30.51160 77.91745 16027 ft 334 kts 331°
2026-05-01 13:56 30.53253 77.90519 16647 ft 337 kts 332°
2026-05-01 13:56 30.55332 77.89295 17265 ft 340 kts 331°
2026-05-01 13:57 30.57446 77.88050 17904 ft 342 kts 331°
2026-05-01 13:57 30.59581 77.86793 18492 ft 345 kts 331°
2026-05-01 13:57 30.61744 77.85519 19062 ft 348 kts 331°
2026-05-01 13:57 30.63920 77.84237 19553 ft 352 kts 331°
2026-05-01 13:58 30.66090 77.82956 20037 ft 356 kts 331°
2026-05-01 13:58 30.68311 77.81648 20568 ft 360 kts 331°
2026-05-01 13:58 30.70564 77.80323 21060 ft 365 kts 331°
2026-05-01 13:58 30.72848 77.78979 21623 ft 368 kts 331°
2026-05-01 13:59 30.75147 77.77626 22137 ft 372 kts 331°
2026-05-01 13:59 30.77473 77.76254 22671 ft 376 kts 331°
2026-05-01 13:59 30.79823 77.74866 23228 ft 379 kts 331°
2026-05-01 13:59 30.82157 77.73489 23704 ft 382 kts 331°
2026-05-01 14:00 30.84536 77.72088 24149 ft 385 kts 331°
2026-05-01 14:00 30.86924 77.70678 24589 ft 387 kts 331°
2026-05-01 14:00 30.89320 77.69260 25002 ft 389 kts 331°
2026-05-01 14:00 30.91733 77.67831 25455 ft 390 kts 331°
2026-05-01 14:01 30.94163 77.66393 25898 ft 393 kts 331°
2026-05-01 14:01 30.96619 77.64938 26262 ft 397 kts 331°
2026-05-01 14:01 30.99087 77.63470 26653 ft 399 kts 331°
2026-05-01 14:01 31.01578 77.61989 27078 ft 401 kts 331°
2026-05-01 14:02 31.04044 77.60524 27495 ft 403 kts 331°
2026-05-01 14:02 31.06560 77.59031 27903 ft 406 kts 330°
2026-05-01 14:02 31.09079 77.57536 28343 ft 406 kts 330°
2026-05-01 14:02 31.11604 77.56037 28783 ft 407 kts 330°
2026-05-01 14:03 31.14145 77.54576 29182 ft 410 kts 334°
2026-05-01 14:03 31.16897 77.53596 29510 ft 417 kts 346°
2026-05-01 14:03 31.19814 77.53321 29888 ft 427 kts 357°
2026-05-01 14:03 31.22795 77.53556 30187 ft 430 kts 359°
2026-05-01 14:04 31.25797 77.53812 30455 ft 432 kts 359°
2026-05-01 14:04 31.28775 77.54061 30736 ft 434 kts 358°
2026-05-01 14:04 31.31794 77.54305 30877 ft 433 kts 358°
2026-05-01 14:04 31.34751 77.54547 30911 ft 418 kts 358°
2026-05-01 14:05 31.40535 77.55020 30934 ft 424 kts 358°
2026-05-01 14:05 31.46550 77.55491 30986 ft 440 kts 358°
2026-05-01 14:06 31.52677 77.55995 30965 ft 445 kts 359°
2026-05-01 14:06 31.58871 77.56512 30998 ft 446 kts 359°
2026-05-01 14:07 31.65065 77.57031 30993 ft 445 kts 359°
2026-05-01 14:08 31.74327 77.57795 31031 ft 444 kts 359°
2026-05-01 14:08 31.80499 77.58312 31047 ft 445 kts 359°
2026-05-01 14:09 31.86680 77.58826 31054 ft 446 kts 359°
2026-05-01 14:09 31.92836 77.59330 31072 ft 446 kts 360°
2026-05-01 14:10 31.96530 77.59632 31077 ft 447 kts
2026-05-01 14:10 32.02784 77.60166 31088 ft 448 kts
2026-05-01 14:11 32.08988 77.60674 31086 ft 450 kts
2026-05-01 14:11 32.18377 77.61458 31089 ft 450 kts
2026-05-01 14:12 32.24622 77.61983 31090 ft 450 kts
2026-05-01 14:12 32.30877 77.62499 31112 ft 450 kts
2026-05-01 14:13 32.36083 77.62940 31107 ft 449 kts
2026-05-01 14:13 32.43337 77.63252 31098 ft 445 kts 353°
2026-05-01 14:14 32.49455 77.62233 31086 ft 443 kts 347°
2026-05-01 14:14 32.55478 77.60936 31072 ft 440 kts 348°
2026-05-01 14:15 32.61618 77.59868 31076 ft 448 kts 350°
2026-05-01 14:15 32.67818 77.58985 31058 ft 448 kts 351°
2026-05-01 14:16 32.73982 77.58123 31063 ft 447 kts 350°
2026-05-01 14:16 32.80143 77.57204 31047 ft 446 kts 350°
2026-05-01 14:17 32.86287 77.56266 31012 ft 446 kts 350°
2026-05-01 14:17 32.92483 77.55325 31007 ft 447 kts 350°
2026-05-01 14:18 32.98634 77.54391 30991 ft 448 kts 350°
2026-05-01 14:18 33.03830 77.53604 30757 ft 449 kts 351°
2026-05-01 14:19 33.07862 77.52997 30419 ft 432 kts 351°
2026-05-01 14:19 33.10832 77.52550 29867 ft 428 kts 351°
2026-05-01 14:19 33.13778 77.52101 29281 ft 423 kts 351°
2026-05-01 14:19 33.16689 77.51654 28733 ft 419 kts 351°
2026-05-01 14:20 33.19561 77.51212 28258 ft 413 kts 351°
2026-05-01 14:20 33.25194 77.50346 27369 ft 402 kts 351°
2026-05-01 14:20 33.27947 77.49926 26933 ft 397 kts 351°
2026-05-01 14:21 33.30675 77.49512 26506 ft 393 kts 351°
2026-05-01 14:21 33.33375 77.49102 26071 ft 389 kts 351°
2026-05-01 14:21 33.36021 77.48699 25652 ft 387 kts 351°
2026-05-01 14:22 33.41323 77.47867 25012 ft 376 kts 348°
2026-05-01 14:22 33.43739 77.46775 25011 ft 369 kts 327°
2026-05-01 14:22 33.45837 77.45017 25013 ft 367 kts 322°
2026-05-01 14:22 33.47885 77.43193 25007 ft 364 kts 322°
2026-05-01 14:23 33.49867 77.41413 25004 ft 351 kts 322°
2026-05-01 14:23 33.51787 77.39685 25008 ft 347 kts 322°
2026-05-01 14:23 33.53714 77.37952 25013 ft 346 kts 322°
2026-05-01 14:23 33.55636 77.36226 25015 ft 345 kts 322°
2026-05-01 14:24 33.57560 77.34492 25013 ft 347 kts 322°
2026-05-01 14:24 33.59463 77.32772 25003 ft 349 kts 322°
2026-05-01 14:24 33.61401 77.31029 24731 ft 345 kts 322°
2026-05-01 14:24 33.63101 77.29051 24387 ft 339 kts 303°
2026-05-01 14:25 33.64163 77.26565 24205 ft 334 kts 293°
2026-05-01 14:25 33.65076 77.23959 24230 ft 340 kts 292°
2026-05-01 14:25 33.65975 77.21377 24092 ft 337 kts 294°
2026-05-01 14:25 33.67240 77.19085 24018 ft 323 kts 316°
2026-05-01 14:26 33.69087 77.17660 24017 ft 316 kts 339°
2026-05-01 14:26 33.73419 77.17534 23431 ft 315 kts
2026-05-01 14:26 33.75583 77.17943 23061 ft 314 kts
2026-05-01 14:27 33.77733 77.18294 22995 ft 311 kts 360°
2026-05-01 14:27 33.79897 77.18254 22883 ft 311 kts 355°
2026-05-01 14:27 33.82060 77.18135 22500 ft 310 kts 355°
2026-05-01 14:28 33.86327 77.17866 21899 ft 304 kts 355°
2026-05-01 14:28 33.88407 77.18002 21764 ft 298 kts 14°
2026-05-01 14:28 33.90290 77.18976 21642 ft 291 kts 26°
2026-05-01 14:28 33.92099 77.20018 21455 ft 284 kts 13°
2026-05-01 14:29 33.94026 77.20184 21193 ft 277 kts 350°
2026-05-01 14:29 33.95913 77.19752 20937 ft 273 kts 346°
2026-05-01 14:30 34.01278 77.18321 20237 ft 260 kts 348°
2026-05-01 14:30 34.03061 77.18267 20080 ft 253 kts
2026-05-01 14:30 34.04725 77.18885 19823 ft 253 kts 31°
2026-05-01 14:31 34.06628 77.22354 19245 ft 254 kts 66°
2026-05-01 14:31 34.07087 77.24383 19007 ft 250 kts 76°
2026-05-01 14:31 34.07449 77.26427 18596 ft 246 kts 78°
2026-05-01 14:31 34.07749 77.28363 18615 ft 218 kts 81°
2026-05-01 14:32 34.07957 77.30106 18494 ft 205 kts 80°
2026-05-01 14:32 34.08108 77.31218 18336 ft 200 kts 80°
2026-05-01 14:32 34.08487 77.33387 17866 ft 197 kts 73°
2026-05-01 14:32 34.08948 77.34926 17402 ft 200 kts 62°
2026-05-01 14:33 34.09662 77.36392 16836 ft 206 kts 56°
2026-05-01 14:33 34.10460 77.37864 16275 ft 212 kts 55°
2026-05-01 14:33 34.11165 77.39471 15579 ft 222 kts 67°
2026-05-01 14:33 34.11624 77.41309 14853 ft 235 kts 75°
2026-05-01 14:34 34.11898 77.43216 14540 ft 225 kts 85°
2026-05-01 14:34 34.11887 77.45088 13936 ft 230 kts 92°
2026-05-01 14:34 34.11752 77.47085 13095 ft 244 kts 92°
2026-05-01 14:34 34.11904 77.49086 12455 ft 234 kts 71°
2026-05-01 14:35 34.12536 77.50955 11189 ft 249 kts 64°
2026-05-01 14:35 34.13094 77.52820 10694 ft 236 kts 75°
2026-05-01 14:35 34.13584 77.54536 10672 ft 185 kts 68°
2026-05-01 14:35 34.13824 77.55394 10783 ft 42 kts 72°
2026-05-01 14:36 34.13884 77.55436 10786 ft 7 kts 349°
2026-05-01 14:36 34.13929 77.55425 10790 ft 8 kts 349°
2026-05-01 14:36 34.13997 77.55410 10794 ft 11 kts 355°
2026-05-01 14:36 34.14044 77.55406 10802 ft 1 kts 355°
2026-05-01 14:37 34.14032 77.55407 10798 ft 6 kts 355°
2026-05-01 14:37 34.14095 77.55389 10811 ft 13 kts 328°
2026-05-01 14:37 34.14117 77.55298 10808 ft 0 kts 339°
2026-05-01 14:37 34.14126 77.55294 10810 ft 7 kts 339°
2026-05-01 14:38 34.14132 77.55291 10811 ft 0 kts 339°